Weather History for Easton, MD

Change the Weather History Date:

Tuesday, January 31, 2012

  Actual Average Record
Temperature  
Mean Temperature 50 °F -  
Max Temperature 62 °F 44 °F 63 °F (1974)
Min Temperature 37 °F 25 °F 5 °F (1965)
Degree Days  
Heating Degree Days 16    
Moisture  
Dew Point 34 °F    
Average Humidity 61    
Maximum Humidity 81    
Minimum Humidity 39    
Precipitation  
Precipitation 0.00 in - - ()
Sea Level Pressure  
Sea Level Pressure 30.22 in    
Wind  
Wind Speed 10 mph (SSW)    
Max Wind Speed 15 mph    
Max Gust Speed 21 mph    
Visibility 10 miles    
Events      
Averages and records for this station are not official NWS values.
T = Trace of Precipitation, MM = Missing Value Source: NWS Daily Summary

Daily Weather History Graph

Daily Weather History Graph

Search for Another Location

Airport:

Trip Planner

Search our weather history database for the weather conditions in past years. The results will help you decide how hot, cold, wet, or windy it might be!

Date:

Astronomy

Jan. 31, 2012 Rise Set
Actual Time 7:11 AM EST 5:24 PM EST
Civil Twilight 6:43 AM EST 5:52 PM EST
Nautical Twilight 6:11 AM EST 6:24 PM EST
Astronomical Twilight 5:40 AM EST 6:55 PM EST
Moon 11:13 AM EST 12:57 AM EST
Length of Visible Light 11h 08m
Length of Day
10h 12m
First Quarter, 55% of the Moon is Illuminated
Jan 31
First Quarter
Feb 7
Full
Feb 14
Last Quarter
Feb 21
New
Feb 29
First Quarter

Hourly Weather History & Observations

Time (EST) Temp. Windchill Dew Point Humidity Pressure Visibility Wind Dir Wind Speed Gust Speed Precip Events Conditions
12:09 AM 37.4 °F 31.4 °F 32.0 °F 81% 30.29 in 10.0 mi South 8.1 mph - N/A   Clear
12:30 AM 39.2 °F 33.0 °F 32.0 °F 75% 30.29 in 10.0 mi South 9.2 mph - N/A   Clear
12:48 AM 41.0 °F 35.2 °F 33.8 °F 76% 30.28 in 10.0 mi South 9.2 mph - N/A   Clear
1:06 AM 41.0 °F 34.3 °F 33.8 °F 76% 30.26 in 10.0 mi South 11.5 mph - N/A   Clear
1:27 AM 41.0 °F 33.5 °F 33.8 °F 76% 30.26 in 10.0 mi South 13.8 mph 20.7 mph N/A   Clear
1:45 AM 41.0 °F 33.9 °F 32.0 °F 70% 30.26 in 10.0 mi South 12.7 mph 19.6 mph N/A   Clear
2:06 AM 42.8 °F 35.4 °F 32.0 °F 66% 30.26 in 10.0 mi SSW 15.0 mph - N/A   Clear
2:45 AM 42.8 °F 35.8 °F 32.0 °F 66% 30.26 in 10.0 mi SSW 13.8 mph 18.4 mph N/A   Clear
3:03 AM 41.0 °F 33.9 °F 32.0 °F 70% 30.26 in 10.0 mi SSW 12.7 mph - N/A   Clear
3:24 AM 41.0 °F 34.7 °F 32.0 °F 70% 30.25 in 10.0 mi SSW 10.4 mph - N/A   Clear
3:42 AM 41.0 °F 35.2 °F 32.0 °F 70% 30.25 in 10.0 mi SSW 9.2 mph - N/A   Clear
4:00 AM 41.0 °F 35.2 °F 32.0 °F 70% 30.25 in 10.0 mi SSW 9.2 mph - N/A   Clear
4:21 AM 39.2 °F 33.0 °F 32.0 °F 75% 30.25 in 10.0 mi SSW 9.2 mph - N/A   Clear
4:39 AM 37.4 °F 32.1 °F 32.0 °F 81% 30.25 in 10.0 mi SSW 6.9 mph - N/A   Clear
5:00 AM 37.4 °F 32.8 °F 32.0 °F 81% 30.26 in 10.0 mi SSW 5.8 mph - N/A   Clear
5:09 AM 39.2 °F 34.2 °F 32.0 °F 75% 30.26 in 10.0 mi South 6.9 mph - N/A   Clear
5:53 AM 37.4 °F 32.1 °F 30.2 °F 75% 30.26 in 10.0 mi SSW 6.9 mph - N/A   Clear
6:50 AM 37.4 °F 32.8 °F 30.2 °F 75% 30.26 in 10.0 mi SSW 5.8 mph - N/A   Clear
7:55 AM 41.0 °F 36.4 °F 32.0 °F 70% 30.28 in 10.0 mi SSW 6.9 mph - N/A   Clear
8:50 AM 46.4 °F 41.9 °F 32.0 °F 57% 30.29 in 10.0 mi SW 9.2 mph - N/A   Scattered Clouds
9:48 AM 50.0 °F - 32.0 °F 50% 30.28 in 10.0 mi SW 10.4 mph - N/A   Scattered Clouds
10:50 AM 53.6 °F - 32.0 °F 44% 30.27 in 10.0 mi SW 13.8 mph 20.7 mph N/A   Mostly Cloudy
11:50 AM 57.2 °F - 33.8 °F 41% 30.24 in 10.0 mi SW 11.5 mph - N/A   Mostly Cloudy
12:50 PM 60.8 °F - 35.6 °F 39% 30.20 in 10.0 mi SW 9.2 mph - N/A   Mostly Cloudy
1:50 PM 60.8 °F - 35.6 °F 39% 30.18 in 10.0 mi WSW 8.1 mph - N/A   Mostly Cloudy
2:50 PM 62.6 °F - 37.4 °F 39% 30.16 in 10.0 mi SSW 11.5 mph - N/A   Scattered Clouds
3:55 PM 60.8 °F - 37.4 °F 42% 30.16 in 10.0 mi SSW 11.5 mph - N/A   Clear
4:50 PM 59.0 °F - 37.4 °F 45% 30.15 in 10.0 mi South 6.9 mph - N/A   Clear
5:50 PM 53.6 °F - 37.4 °F 54% 30.15 in 10.0 mi SSW 6.9 mph - N/A   Clear
6:50 PM 51.8 °F - 37.4 °F 58% 30.16 in 10.0 mi South 6.9 mph - N/A   Clear
7:50 PM 53.6 °F - 35.6 °F 51% 30.16 in 10.0 mi SSW 9.2 mph - N/A   Clear
8:50 PM 53.6 °F - 35.6 °F 51% 30.16 in 10.0 mi SSW 10.4 mph - N/A   Clear
9:24 PM 51.8 °F - 35.6 °F 54% 30.16 in 10.0 mi SSW 11.5 mph - N/A   Clear
9:42 PM 51.8 °F - 35.6 °F 54% 30.16 in 10.0 mi SSW 10.4 mph - N/A   Clear
10:03 PM 51.8 °F - 35.6 °F 54% 30.14 in 10.0 mi South 11.5 mph - N/A   Clear
10:21 PM 51.8 °F - 35.6 °F 54% 30.15 in 10.0 mi SSW 10.4 mph - N/A   Clear
10:42 PM 51.8 °F - 35.6 °F 54% 30.15 in 10.0 mi SSW 9.2 mph - N/A   Clear
11:00 PM 51.8 °F - 35.6 °F 54% 30.14 in 10.0 mi SSW 11.5 mph - N/A   Clear
11:21 PM 51.8 °F - 35.6 °F 54% 30.14 in 10.0 mi SSW 10.4 mph - N/A   Clear
11:39 PM 51.8 °F - 35.6 °F 54% 30.14 in 10.0 mi SSW 9.2 mph - N/A   Clear
11:57 PM 51.8 °F - 35.6 °F 54% 30.13 in 10.0 mi SSW 13.8 mph 18.4 mph N/A   Clear